| time (UTC) | temp F | wind direction | speed MPH | gust MPH | rain 1hr in | rain 24hr in | rain mn in | humidity % | barometer mb |
| 20260906131529 | 70 | 130 | 5.0 | 12.0 | 0.00 | 0.00 | 0.00 | 69 | 1016.1 |
| 20260906130023 | 0 | 0.0 | 0.0 | 0.00 | 0.00 | 0.00 | 1016.2 | ||
| 20260906124517 | 0 | 0.0 | 0.0 | 0.00 | 0.00 | 0.00 | 1016.1 | ||
| 20260906123013 | 0 | 0.0 | 0.0 | 0.00 | 0.00 | 0.00 | 1015.8 | ||
| 20260906121509 | 0 | 0.0 | 0.0 | 0.00 | 0.00 | 0.00 | 1015.6 | ||
| 20260906120009 | 0 | 0.0 | 0.0 | 0.00 | 0.00 | 0.00 | 1015.4 | ||
| 20260906114602 | 0 | 0.0 | 0.0 | 0.00 | 0.00 | 0.00 | 1015.5 | ||
| 20260906113057 | 0 | 0.0 | 0.0 | 0.00 | 0.00 | 0.00 | 1015.6 | ||
| 20260906111535 | 0 | 0.0 | 0.0 | 0.00 | 0.00 | 0.00 | 1015.5 | ||
| 20260906110030 | 0 | 0.0 | 0.0 | 0.00 | 0.00 | 0.00 | 1015.3 | ||
| 20260906104511 | 0 | 0.0 | 0.0 | 0.00 | 0.00 | 0.00 | 1015.2 | ||
| 20260906103008 | 0 | 0.0 | 0.0 | 0.00 | 0.00 | 0.00 | 1015.1 | ||
| 20260906101547 | 69 | 127 | 3.0 | 8.0 | 0.00 | 0.00 | 0.00 | 76 | 1015.1 |
| 20260906100044 | 69 | 97 | 3.0 | 7.0 | 0.00 | 0.00 | 0.00 | 76 | 1015.1 |
| 20260906094522 | 70 | 121 | 4.0 | 8.0 | 0.00 | 0.00 | 0.00 | 78 | 1015.0 |
| 20260906093024 | 70 | 132 | 6.0 | 11.0 | 0.00 | 0.00 | 0.00 | 76 | 1014.8 |
| 20260906091501 | 70 | 148 | 3.0 | 8.0 | 0.00 | 0.00 | 0.00 | 75 | 1014.7 |
| 20260906090100 | 70 | 173 | 2.0 | 7.0 | 0.00 | 0.00 | 0.00 | 73 | 1014.7 |
| 20260906090001 | 70 | 131 | 2.0 | 7.0 | 0.00 | 0.00 | 0.00 | 74 | 1014.6 |
| 20260906084542 | 70 | 150 | 3.0 | 9.0 | 0.00 | 0.00 | 0.00 | 74 | 1014.7 |
| 20260906083041 | 70 | 136 | 4.0 | 11.0 | 0.00 | 0.00 | 0.00 | 75 | 1014.6 |
| 20260906081525 | 70 | 130 | 6.0 | 10.0 | 0.00 | 0.00 | 0.00 | 77 | 1014.3 |
| 20260906080023 | 71 | 148 | 5.0 | 11.0 | 0.00 | 0.00 | 0.00 | 78 | 1014.4 |
| 20260906074502 | 71 | 138 | 7.0 | 11.0 | 0.00 | 0.00 | 0.00 | 77 | 1014.4 |
| 20260906073002 | 71 | 113 | 8.0 | 11.0 | 0.00 | 0.00 | 0.00 | 73 | 1014.7 |
| 20260906071546 | 71 | 138 | 5.0 | 10.0 | 0.00 | 0.00 | 0.00 | 70 | 1014.8 |
| 20260906070043 | 71 | 124 | 4.0 | 8.0 | 0.00 | 0.00 | 0.00 | 62 | 1014.9 |
| 20260906064533 | 71 | 113 | 8.0 | 13.0 | 0.00 | 0.00 | 0.00 | 56 | 1014.8 |
| 20260906063023 | 70 | 113 | 6.0 | 10.0 | 0.00 | 0.00 | 0.00 | 54 | 1014.9 |
| 20260906061507 | 70 | 102 | 6.0 | 9.0 | 0.00 | 0.00 | 0.00 | 53 | 1014.7 |
| 20260906060001 | 70 | 95 | 5.0 | 9.0 | 0.00 | 0.00 | 0.00 | 55 | 1014.9 |
| 20260906054541 | 70 | 97 | 5.0 | 7.0 | 0.00 | 0.00 | 0.00 | 58 | 1014.9 |
| 20260906053040 | 70 | 86 | 3.0 | 6.0 | 0.00 | 0.00 | 0.00 | 59 | 1014.9 |
| 20260906051526 | 71 | 99 | 4.0 | 8.0 | 0.00 | 0.00 | 0.00 | 60 | 1014.6 |
| 20260906050024 | 71 | 104 | 2.0 | 5.0 | 0.00 | 0.00 | 0.00 | 62 | 1014.6 |
| 20260906044522 | 71 | 103 | 3.0 | 5.0 | 0.00 | 0.00 | 0.00 | 58 | 1014.6 |
| 20260906043024 | 71 | 103 | 4.0 | 7.0 | 0.00 | 0.00 | 0.00 | 60 | 1014.5 |
| 20260906041519 | 71 | 92 | 3.0 | 6.0 | 0.00 | 0.00 | 0.00 | 62 | 1014.5 |
| 20260906040019 | 71 | 105 | 4.0 | 6.0 | 0.00 | 0.00 | 0.00 | 65 | 1014.5 |
| 20260906034514 | 72 | 85 | 5.0 | 7.0 | 0.00 | 0.00 | 0.00 | 69 | 1014.7 |
| 20260906033012 | 72 | 97 | 3.0 | 10.0 | 0.00 | 0.00 | 0.00 | 75 | 1014.6 |
| 20260906031554 | 73 | 130 | 5.0 | 8.0 | 0.00 | 0.00 | 0.00 | 74 | 1014.6 |
| 20260906030051 | 73 | 98 | 5.0 | 7.0 | 0.00 | 0.00 | 0.00 | 74 | 1014.7 |
| 20260906024532 | 73 | 96 | 3.0 | 5.0 | 0.00 | 0.00 | 0.00 | 78 | 1014.6 |
| 20260906023028 | 73 | 98 | 3.0 | 6.0 | 0.00 | 0.00 | 0.00 | 78 | 1014.3 |
| 20260906021520 | 73 | 107 | 3.0 | 6.0 | 0.00 | 0.00 | 0.00 | 78 | 1014.2 |
| 20260906020013 | 73 | 131 | 3.0 | 7.0 | 0.00 | 0.00 | 0.00 | 77 | 1014.2 |
| 20260906014554 | 73 | 125 | 4.0 | 6.0 | 0.00 | 0.00 | 0.00 | 77 | 1013.9 |
| 20260906013053 | 74 | 95 | 3.0 | 6.0 | 0.00 | 0.00 | 0.00 | 80 | 1013.7 |
| 20260906011534 | 74 | 92 | 2.0 | 4.0 | 0.00 | 0.00 | 0.00 | 83 | 1013.6 |
| 20260906010032 | 75 | 96 | 3.0 | 7.0 | 0.00 | 0.00 | 0.00 | 85 | 1013.4 |
| 20260906004515 | 75 | 98 | 4.0 | 6.0 | 0.00 | 0.00 | 0.00 | 86 | 1013.2 |
| 20260906003021 | 76 | 94 | 5.0 | 11.0 | 0.00 | 0.00 | 0.00 | 87 | 1013.1 |
| 20260906001557 | 76 | 106 | 3.0 | 8.0 | 0.00 | 0.00 | 0.00 | 87 | 1013.0 |
| 20260906000056 | 77 | 95 | 5.0 | 9.0 | 0.00 | 0.00 | 0.00 | 87 | 1013.0 |
| 20260905234541 | 78 | 106 | 5.0 | 8.0 | 0.00 | 0.00 | 0.00 | 87 | 1012.8 |
| 20260905233037 | 78 | 105 | 2.0 | 8.0 | 0.00 | 0.00 | 0.00 | 87 | 1012.8 |
| 20260905231519 | 79 | 103 | 5.0 | 8.0 | 0.00 | 0.00 | 0.00 | 87 | 1012.8 |
| 20260905230018 | 80 | 101 | 4.0 | 10.0 | 0.00 | 0.00 | 0.00 | 86 | 1012.6 |
| 20260905224619 | 80 | 94 | 7.0 | 10.0 | 0.00 | 0.00 | 0.00 | 85 | 1012.5 |
| 20260905223059 | 80 | 113 | 4.0 | 8.0 | 0.00 | 0.00 | 0.00 | 86 | 1012.6 |
| 20260905221603 | 80 | 115 | 4.0 | 9.0 | 0.00 | 0.00 | 0.00 | 86 | 1012.3 |
| 20260905220041 | 80 | 137 | 6.0 | 11.0 | 0.00 | 0.00 | 0.00 | 86 | 1012.0 |
| 20260905214540 | 81 | 103 | 5.0 | 11.0 | 0.00 | 0.00 | 0.00 | 86 | 1011.8 |
| 20260905213025 | 81 | 96 | 6.0 | 11.0 | 0.00 | 0.00 | 0.00 | 86 | 1011.9 |
| 20260905211524 | 81 | 122 | 3.0 | 10.0 | 0.00 | 0.00 | 0.00 | 86 | 1012.4 |
| 20260905210023 | 81 | 99 | 5.0 | 9.0 | 0.00 | 0.00 | 0.00 | 86 | 1012.6 |
| 20260905204525 | 81 | 102 | 4.0 | 7.0 | 0.00 | 0.00 | 0.00 | 85 | 1012.6 |
| 20260905203023 | 81 | 92 | 2.0 | 9.0 | 0.00 | 0.00 | 0.00 | 84 | 1012.9 |
| 20260905200024 | 80 | 98 | 3.0 | 8.0 | 0.00 | 0.00 | 0.00 | 86 | 1012.3 |
| 20260905194516 | 78 | 95 | 0.0 | 10.0 | 0.00 | 0.00 | 0.00 | 87 | 1012.4 |
| 20260905193013 | 78 | 95 | 8.0 | 18.0 | 0.00 | 0.00 | 0.00 | 87 | 1012.0 |
| 20260905190011 | 77 | 82 | 13.0 | 21.0 | 0.00 | 0.00 | 0.00 | 87 | 1011.5 |
| 20260905184519 | 77 | 82 | 13.0 | 20.0 | 0.00 | 0.00 | 0.00 | 87 | 1012.1 |
| 20260905183006 | 76 | 209 | 5.0 | 19.0 | 0.00 | 0.00 | 0.00 | 87 | 1012.5 |
| 20260905180044 | 75 | 74 | 14.0 | 18.0 | 0.00 | 0.00 | 0.00 | 85 | 1012.8 |
| 20260905174540 | 75 | 63 | 10.0 | 15.0 | 0.00 | 0.00 | 0.00 | 83 | 1013.3 |
| 20260905173015 | 74 | 100 | 9.0 | 13.0 | 0.00 | 0.00 | 0.00 | 70 | 1013.8 |
| 20260905171514 | 73 | 94 | 8.0 | 12.0 | 0.00 | 0.00 | 0.00 | 64 | 1014.1 |
| 20260905170100 | 73 | 94 | 6.0 | 10.0 | 0.00 | 0.00 | 0.00 | 66 | 1014.4 |
| 20260905164555 | 72 | 60 | 5.0 | 7.0 | 0.00 | 0.00 | 0.00 | 65 | 1014.6 |
| 20260905163039 | 72 | 70 | 3.0 | 5.0 | 0.00 | 0.00 | 0.00 | 67 | 1015.1 |
| 20260905161536 | 72 | 87 | 0.0 | 1.0 | 0.00 | 0.00 | 0.00 | 64 | 1015.3 |
| 20260905160021 | 72 | 322 | 0.0 | 2.0 | 0.00 | 0.00 | 0.00 | 57 | 1015.3 |
| 20260905154518 | 71 | 286 | 0.0 | 5.0 | 0.00 | 0.00 | 0.00 | 54 | 1015.5 |
| 20260905153006 | 71 | 290 | 4.0 | 9.0 | 0.00 | 0.00 | 0.00 | 58 | 1015.6 |
| 20260905151508 | 71 | 311 | 0.0 | 0.0 | 0.00 | 0.00 | 0.00 | 58 | 1014.7 |
| 20260905150004 | 71 | 307 | 0.0 | 1.0 | 0.00 | 0.00 | 0.00 | 53 | 1014.8 |
| 20260905144511 | 71 | 307 | 0.0 | 1.0 | 0.00 | 0.00 | 0.00 | 51 | 1014.6 |
| 20260905143059 | 70 | 105 | 0.0 | 6.0 | 0.00 | 0.00 | 0.00 | 50 | 1014.2 |
| 20260905141609 | 70 | 83 | 1.0 | 5.0 | 0.00 | 0.00 | 0.00 | 50 | 1014.0 |
| 20260905140103 | 70 | 64 | 2.0 | 5.0 | 0.00 | 0.00 | 0.00 | 49 | 1013.6 |
| 20260905134555 | 70 | 345 | 0.0 | 0.0 | 0.00 | 0.00 | 0.00 | 48 | 1013.7 |
| 20260905133042 | 70 | 345 | 0.0 | 0.0 | 0.00 | 0.00 | 0.00 | 48 | 1013.6 |